Time,TemperatureF,DewpointF,PressureIn,WindDirection,WindDirectionDegrees,WindSpeedMPH,WindSpeedGustMPH,Humidity,HourlyPrecipIn,Conditions,Clouds,dailyrainin,SolarRadiationWatts/m^2,SoftwareType,DateUTC
2013-08-03 00:01:00,66.0,57.0,-100.00,SW,233,2.0,5.0,74,0.00,,,0.00,0.000000,,2013-08-03 04:01:00,
2013-08-03 00:33:00,66.0,57.0,-100.00,SW,233,2.0,5.0,74,0.00,,,0.00,0.000000,,2013-08-03 04:33:00,
2013-08-03 00:43:00,66.0,57.0,-100.00,SW,233,2.0,5.0,74,0.00,,,0.00,0.000000,,2013-08-03 04:43:00,
2013-08-03 00:53:00,66.0,57.0,-100.00,SW,233,2.0,5.0,74,0.00,,,0.00,0.000000,,2013-08-03 04:53:00,
2013-08-03 01:01:00,68.0,58.0,-100.00,SSW,205,2.0,6.0,71,0.00,,,0.00,0.000000,,2013-08-03 05:01:00,
2013-08-03 01:32:00,68.0,58.0,-100.00,SSW,205,2.0,6.0,71,0.00,,,0.00,0.000000,,2013-08-03 05:32:00,
2013-08-03 01:42:00,68.0,58.0,-100.00,SSW,205,2.0,6.0,71,0.00,,,0.00,0.000000,,2013-08-03 05:42:00,
2013-08-03 01:53:00,68.0,58.0,-100.00,SSW,205,2.0,6.0,71,0.00,,,0.00,0.000000,,2013-08-03 05:53:00,
2013-08-03 02:01:00,65.0,57.0,-100.00,ENE,76,2.0,4.0,76,0.00,,,0.00,0.000000,,2013-08-03 06:01:00,
2013-08-03 02:33:00,65.0,57.0,-100.00,ENE,76,2.0,4.0,76,0.00,,,0.00,0.000000,,2013-08-03 06:33:00,
2013-08-03 02:42:00,65.0,57.0,-100.00,ENE,76,2.0,4.0,76,0.00,,,0.00,0.000000,,2013-08-03 06:42:00,
2013-08-03 02:52:00,65.0,57.0,-100.00,ENE,76,2.0,4.0,76,0.00,,,0.00,0.000000,,2013-08-03 06:52:00,
2013-08-03 03:01:00,63.0,58.0,-100.00,NNE,18,2.0,4.0,83,0.00,,,0.00,0.000000,,2013-08-03 07:01:00,
2013-08-03 03:22:00,63.0,58.0,-100.00,NNE,18,2.0,4.0,83,0.00,,,0.00,0.000000,,2013-08-03 07:22:00,
2013-08-03 03:32:00,63.0,58.0,-100.00,NNE,18,2.0,4.0,83,0.00,,,0.00,0.000000,,2013-08-03 07:32:00,
2013-08-03 03:43:00,63.0,58.0,-100.00,NNE,18,2.0,4.0,83,0.00,,,0.00,0.000000,,2013-08-03 07:43:00,
2013-08-03 03:53:00,63.0,58.0,-100.00,NNE,18,2.0,4.0,83,0.00,,,0.00,0.000000,,2013-08-03 07:53:00,
2013-08-03 04:01:00,62.0,56.0,-100.00,East,96,1.0,3.0,81,0.00,,,0.00,0.000000,,2013-08-03 08:01:00,
2013-08-03 04:22:00,62.0,56.0,-100.00,East,96,1.0,3.0,81,0.00,,,0.00,0.000000,,2013-08-03 08:22:00,
2013-08-03 04:32:00,62.0,56.0,-100.00,East,96,1.0,3.0,81,0.00,,,0.00,0.000000,,2013-08-03 08:32:00,
2013-08-03 04:43:00,62.0,56.0,-100.00,East,96,1.0,3.0,81,0.00,,,0.00,0.000000,,2013-08-03 08:43:00,
2013-08-03 04:52:00,62.0,56.0,-100.00,East,96,1.0,3.0,81,0.00,,,0.00,0.000000,,2013-08-03 08:52:00,
2013-08-03 05:01:00,63.0,55.0,-100.00,SSW,208,2.0,4.0,74,0.00,,,0.00,0.000000,,2013-08-03 09:01:00,
2013-08-03 05:22:00,63.0,55.0,-100.00,SSW,208,2.0,4.0,74,0.00,,,0.00,0.000000,,2013-08-03 09:22:00,
2013-08-03 05:32:00,63.0,55.0,-100.00,SSW,208,2.0,4.0,74,0.00,,,0.00,0.000000,,2013-08-03 09:32:00,
2013-08-03 05:43:00,63.0,55.0,-100.00,SSW,208,2.0,4.0,74,0.00,,,0.00,0.000000,,2013-08-03 09:43:00,
2013-08-03 05:53:00,63.0,55.0,-100.00,SSW,208,2.0,4.0,74,0.00,,,0.00,0.000000,,2013-08-03 09:53:00,
2013-08-03 06:01:00,63.0,57.0,-100.00,WSW,243,2.0,3.0,81,0.00,,,0.00,0.000000,,2013-08-03 10:01:00,
2013-08-03 06:22:00,63.0,57.0,-100.00,WSW,243,2.0,3.0,81,0.00,,,0.00,0.000000,,2013-08-03 10:22:00,
2013-08-03 06:33:00,63.0,57.0,-100.00,WSW,243,2.0,3.0,81,0.00,,,0.00,0.000000,,2013-08-03 10:33:00,
2013-08-03 06:43:00,63.0,57.0,-100.00,WSW,243,2.0,3.0,81,0.00,,,0.00,0.000000,,2013-08-03 10:43:00,
2013-08-03 06:53:00,63.0,57.0,-100.00,WSW,243,2.0,3.0,81,0.00,,,0.00,0.000000,,2013-08-03 10:53:00,
2013-08-03 07:01:00,61.0,57.0,-100.00,NW,317,1.0,5.0,88,0.00,,,0.00,5.000000,,2013-08-03 11:01:00,
2013-08-03 07:23:00,61.0,57.0,-100.00,NW,317,1.0,5.0,88,0.00,,,0.00,5.000000,,2013-08-03 11:23:00,
2013-08-03 07:32:00,61.0,57.0,-100.00,NW,317,1.0,5.0,88,0.00,,,0.00,5.000000,,2013-08-03 11:32:00,
2013-08-03 07:43:00,61.0,57.0,-100.00,NW,317,1.0,5.0,88,0.00,,,0.00,5.000000,,2013-08-03 11:43:00,
2013-08-03 07:53:00,61.0,57.0,-100.00,NW,317,1.0,5.0,88,0.00,,,0.00,5.000000,,2013-08-03 11:53:00,
2013-08-03 08:01:00,63.0,58.0,-100.00,SSW,212,1.0,3.0,85,0.00,,,0.00,28.000000,,2013-08-03 12:01:00,
2013-08-03 08:33:00,63.0,58.0,-100.00,SSW,212,1.0,3.0,85,0.00,,,0.00,28.000000,,2013-08-03 12:33:00,
2013-08-03 08:43:00,63.0,58.0,-100.00,SSW,212,1.0,3.0,85,0.00,,,0.00,28.000000,,2013-08-03 12:43:00,
2013-08-03 08:53:00,63.0,58.0,-100.00,SSW,212,1.0,3.0,85,0.00,,,0.00,28.000000,,2013-08-03 12:53:00,
2013-08-03 09:01:00,64.0,61.0,-100.00,South,178,1.0,3.0,89,0.00,,,0.00,77.000000,,2013-08-03 13:01:00,
2013-08-03 09:33:00,64.0,61.0,-100.00,South,178,1.0,3.0,89,0.00,,,0.00,77.000000,,2013-08-03 13:33:00,
2013-08-03 09:43:00,64.0,61.0,-100.00,South,178,1.0,3.0,89,0.00,,,0.00,77.000000,,2013-08-03 13:43:00,
2013-08-03 09:52:00,64.0,61.0,-100.00,South,178,1.0,3.0,89,0.00,,,0.00,77.000000,,2013-08-03 13:52:00,
2013-08-03 10:01:00,66.0,62.0,-100.00,NNE,20,2.0,3.0,87,0.00,,,0.00,170.000000,,2013-08-03 14:01:00,
2013-08-03 10:33:00,66.0,62.0,-100.00,NNE,20,2.0,3.0,87,0.00,,,0.00,170.000000,,2013-08-03 14:33:00,
2013-08-03 10:42:00,66.0,62.0,-100.00,NNE,20,2.0,3.0,87,0.00,,,0.00,170.000000,,2013-08-03 14:42:00,
2013-08-03 10:52:00,66.0,62.0,-100.00,NNE,20,2.0,3.0,87,0.00,,,0.00,170.000000,,2013-08-03 14:52:00,
2013-08-03 11:01:00,71.0,65.0,-100.00,South,175,2.0,4.0,80,0.00,,,0.00,330.000000,,2013-08-03 15:01:00,
2013-08-03 11:32:00,71.0,65.0,-100.00,South,175,2.0,4.0,80,0.00,,,0.00,330.000000,,2013-08-03 15:32:00,
2013-08-03 11:43:00,71.0,65.0,-100.00,South,175,2.0,4.0,80,0.00,,,0.00,330.000000,,2013-08-03 15:43:00,
2013-08-03 11:53:00,71.0,65.0,-100.00,South,175,2.0,4.0,80,0.00,,,0.00,330.000000,,2013-08-03 15:53:00,
2013-08-03 12:01:00,76.0,66.0,-100.00,SSW,202,2.0,4.0,71,0.00,,,0.00,600.000000,,2013-08-03 16:01:00,
2013-08-03 12:33:00,76.0,66.0,-100.00,SSW,202,2.0,4.0,71,0.00,,,0.00,600.000000,,2013-08-03 16:33:00,
2013-08-03 12:43:00,76.0,66.0,-100.00,SSW,202,2.0,4.0,71,0.00,,,0.00,600.000000,,2013-08-03 16:43:00,
2013-08-03 12:53:00,76.0,66.0,-100.00,SSW,202,2.0,4.0,71,0.00,,,0.00,600.000000,,2013-08-03 16:53:00,
2013-08-03 13:01:00,79.0,66.0,-100.00,North,3,2.0,6.0,65,0.00,,,0.00,776.000000,,2013-08-03 17:01:00,
2013-08-03 13:22:00,79.0,66.0,-100.00,North,3,2.0,6.0,65,0.00,,,0.00,776.000000,,2013-08-03 17:22:00,
2013-08-03 13:32:00,79.0,66.0,-100.00,North,3,2.0,6.0,65,0.00,,,0.00,776.000000,,2013-08-03 17:32:00,
2013-08-03 13:43:00,79.0,66.0,-100.00,North,3,2.0,6.0,65,0.00,,,0.00,776.000000,,2013-08-03 17:43:00,
2013-08-03 13:52:00,79.0,66.0,-100.00,North,3,2.0,6.0,65,0.00,,,0.00,776.000000,,2013-08-03 17:52:00,
2013-08-03 14:01:00,81.0,64.0,-100.00,SW,219,4.0,12.0,57,0.00,,,0.00,983.000000,,2013-08-03 18:01:00,
2013-08-03 14:32:00,81.0,64.0,-100.00,SW,219,4.0,12.0,57,0.00,,,0.00,983.000000,,2013-08-03 18:32:00,
2013-08-03 14:43:00,81.0,64.0,-100.00,SW,219,4.0,12.0,57,0.00,,,0.00,983.000000,,2013-08-03 18:43:00,
2013-08-03 14:53:00,81.0,64.0,-100.00,SW,219,4.0,12.0,57,0.00,,,0.00,983.000000,,2013-08-03 18:53:00,
2013-08-03 15:01:00,76.0,63.0,-100.00,SSW,206,2.0,10.0,65,0.00,,,0.00,414.000000,,2013-08-03 19:01:00,
2013-08-03 15:22:00,76.0,63.0,-100.00,SSW,206,2.0,10.0,65,0.00,,,0.00,414.000000,,2013-08-03 19:22:00,
2013-08-03 15:32:00,76.0,63.0,-100.00,SSW,206,2.0,10.0,65,0.00,,,0.00,414.000000,,2013-08-03 19:32:00,
2013-08-03 15:43:00,76.0,63.0,-100.00,SSW,206,2.0,10.0,65,0.00,,,0.00,414.000000,,2013-08-03 19:43:00,
2013-08-03 15:53:00,76.0,63.0,-100.00,SSW,206,2.0,10.0,65,0.00,,,0.00,414.000000,,2013-08-03 19:53:00,
2013-08-03 16:01:00,74.0,61.0,-100.00,WSW,248,3.0,11.0,64,0.00,,,0.00,200.000000,,2013-08-03 20:01:00,
2013-08-03 16:32:00,74.0,61.0,-100.00,WSW,248,3.0,11.0,64,0.00,,,0.00,200.000000,,2013-08-03 20:32:00,
2013-08-03 16:42:00,74.0,61.0,-100.00,WSW,248,3.0,11.0,64,0.00,,,0.00,200.000000,,2013-08-03 20:42:00,
2013-08-03 16:52:00,74.0,61.0,-100.00,WSW,248,3.0,11.0,64,0.00,,,0.00,200.000000,,2013-08-03 20:52:00,
2013-08-03 17:01:00,69.0,61.0,-100.00,WNW,289,3.0,8.0,75,0.00,,,0.00,150.000000,,2013-08-03 21:01:00,
2013-08-03 17:22:00,69.0,61.0,-100.00,WNW,289,3.0,8.0,75,0.00,,,0.00,150.000000,,2013-08-03 21:22:00,
2013-08-03 17:32:00,69.0,61.0,-100.00,WNW,289,3.0,8.0,75,0.00,,,0.00,150.000000,,2013-08-03 21:32:00,
2013-08-03 17:42:00,69.0,61.0,-100.00,WNW,289,3.0,8.0,75,0.00,,,0.00,150.000000,,2013-08-03 21:42:00,
2013-08-03 17:52:00,69.0,61.0,-100.00,WNW,289,3.0,8.0,75,0.00,,,0.00,150.000000,,2013-08-03 21:52:00,
2013-08-03 18:01:00,71.0,65.0,-100.00,SW,219,2.0,7.0,80,0.00,,,0.00,275.000000,,2013-08-03 22:01:00,
2013-08-03 18:22:00,71.0,65.0,-100.00,SW,219,2.0,7.0,80,0.00,,,0.00,275.000000,,2013-08-03 22:22:00,
2013-08-03 18:33:00,71.0,65.0,-100.00,SW,219,2.0,7.0,80,0.00,,,0.00,275.000000,,2013-08-03 22:33:00,
2013-08-03 18:43:00,71.0,65.0,-100.00,SW,219,2.0,7.0,80,0.00,,,0.00,275.000000,,2013-08-03 22:43:00,
2013-08-03 18:52:00,71.0,65.0,-100.00,SW,219,2.0,7.0,80,0.00,,,0.00,275.000000,,2013-08-03 22:52:00,
2013-08-03 19:01:00,70.0,64.0,-100.00,SW,228,1.0,5.0,80,0.00,,,0.00,149.000000,,2013-08-03 23:01:00,
2013-08-03 19:22:00,70.0,64.0,-100.00,SW,228,1.0,5.0,80,0.00,,,0.00,149.000000,,2013-08-03 23:22:00,
2013-08-03 19:32:00,70.0,64.0,-100.00,SW,228,1.0,5.0,80,0.00,,,0.00,149.000000,,2013-08-03 23:32:00,
2013-08-03 19:43:00,70.0,64.0,-100.00,SW,228,1.0,5.0,80,0.00,,,0.00,149.000000,,2013-08-03 23:43:00,
2013-08-03 19:52:00,70.0,64.0,-100.00,SW,228,1.0,5.0,80,0.00,,,0.00,149.000000,,2013-08-03 23:52:00,
2013-08-03 20:01:00,68.0,63.0,-100.00,West,273,1.0,5.0,85,0.00,,,0.00,37.000000,,2013-08-04 00:01:00,
2013-08-03 20:22:00,68.0,63.0,-100.00,West,273,1.0,5.0,85,0.00,,,0.00,37.000000,,2013-08-04 00:22:00,
2013-08-03 20:32:00,68.0,63.0,-100.00,West,273,1.0,5.0,85,0.00,,,0.00,37.000000,,2013-08-04 00:32:00,
2013-08-03 20:43:00,68.0,63.0,-100.00,West,273,1.0,5.0,85,0.00,,,0.00,37.000000,,2013-08-04 00:43:00,
2013-08-03 20:53:00,68.0,63.0,-100.00,West,273,1.0,5.0,85,0.00,,,0.00,37.000000,,2013-08-04 00:53:00,
2013-08-03 21:01:00,68.0,61.0,-100.00,NE,35,2.0,4.0,79,0.00,,,0.00,4.000000,,2013-08-04 01:01:00,
2013-08-03 21:22:00,68.0,61.0,-100.00,NE,35,2.0,4.0,79,0.00,,,0.00,4.000000,,2013-08-04 01:22:00,
2013-08-03 21:32:00,68.0,61.0,-100.00,NE,35,2.0,4.0,79,0.00,,,0.00,4.000000,,2013-08-04 01:32:00,
2013-08-03 21:42:00,68.0,61.0,-100.00,NE,35,2.0,4.0,79,0.00,,,0.00,4.000000,,2013-08-04 01:42:00,
2013-08-03 21:53:00,68.0,61.0,-100.00,NE,35,2.0,4.0,79,0.00,,,0.00,4.000000,,2013-08-04 01:53:00,
2013-08-03 22:01:00,69.0,61.0,-100.00,West,273,2.0,5.0,75,0.00,,,0.00,0.000000,,2013-08-04 02:01:00,
2013-08-03 22:22:00,69.0,61.0,-100.00,West,273,2.0,5.0,75,0.00,,,0.00,0.000000,,2013-08-04 02:22:00,
2013-08-03 22:32:00,69.0,61.0,-100.00,West,273,2.0,5.0,75,0.00,,,0.00,0.000000,,2013-08-04 02:32:00,
2013-08-03 22:42:00,69.0,61.0,-100.00,West,273,2.0,5.0,75,0.00,,,0.00,0.000000,,2013-08-04 02:42:00,
2013-08-03 22:52:00,69.0,61.0,-100.00,West,273,2.0,5.0,75,0.00,,,0.00,0.000000,,2013-08-04 02:52:00,
2013-08-03 23:01:00,67.0,60.0,-100.00,NE,34,1.0,3.0,77,0.00,,,0.00,0.000000,,2013-08-04 03:01:00,
2013-08-03 23:22:00,67.0,60.0,-100.00,NE,34,1.0,3.0,77,0.00,,,0.00,0.000000,,2013-08-04 03:22:00,
2013-08-03 23:32:00,67.0,60.0,-100.00,NE,34,1.0,3.0,77,0.00,,,0.00,0.000000,,2013-08-04 03:32:00,
2013-08-03 23:42:00,67.0,60.0,-100.00,NE,34,1.0,3.0,77,0.00,,,0.00,0.000000,,2013-08-04 03:42:00,
2013-08-03 23:52:00,67.0,60.0,-100.00,NE,34,1.0,3.0,77,0.00,,,0.00,0.000000,,2013-08-04 03:52:00,